contact:dominique.lefevre@mio.osupytheas.fr, maurice.libes@osupytheas.fr, didier.mallarino@osupytheas.fr
Project:EMSO http://www.emso-fr.org/EMSO-France
Depth: 2436.0 m
Title:EMSO Ligure Ouest : Data MII capteur AQUADOPP
Date,Latitude,Longitude,X_East,Y_North,Z_Up,Amplitude_X,Amplitude_Y,Amplitude_Z,Batterie,SoundSpeed,Heading,Pitch,Roll,Pressure,TIS,Speed,Direction
, degrees North, degrees East, m.s-1, m.s-1,m.s-1, 1, 1, 1, Volt, m.s-1, degree, degree, degree, dbar, degree_C, m.s-1, degree
2020-06-23T00:04:03,42.805,6.029,0.049,-0.024,-0.025,104.0,106.0,101.0,13.4,1505.2,328.6,-0.7,1.8,2470.447,13.3,0.054,116.1
2020-06-23T00:07:03,42.805,6.029,0.046,-0.017,0.0,104.0,105.0,102.0,13.4,1505.3,326.7,-0.7,1.8,2470.392,13.31,0.049,110.3
2020-06-23T00:10:03,42.805,6.029,0.058,-0.037,-0.002,105.0,105.0,102.0,13.4,1505.3,327.9,-0.7,1.8,2470.435,13.31,0.068,122.5
2020-06-23T00:13:03,42.805,6.029,0.064,-0.016,0.022,104.0,105.0,103.0,13.4,1505.3,327.2,-0.7,1.8,2470.366,13.32,0.065,104.0
2020-06-23T00:16:03,42.805,6.029,0.048,-0.012,0.027,104.0,106.0,101.0,13.4,1505.3,323.5,-0.7,1.8,2470.422,13.32,0.049,104.0
2020-06-23T00:19:03,42.805,6.029,0.077,-0.015,0.0,105.0,107.0,100.0,13.4,1505.3,324.2,-0.7,1.9,2470.384,13.32,0.078,101.0
2020-06-23T00:22:02,42.805,6.029,0.074,-0.043,0.008,104.0,105.0,102.0,13.4,1505.3,322.9,-0.7,1.8,2470.38,13.32,0.085,120.2
2020-06-23T00:25:03,42.805,6.029,0.049,-0.021,0.015,105.0,105.0,101.0,13.4,1505.3,326.4,-0.7,1.8,2470.383,13.32,0.053,113.2
2020-06-23T00:28:03,42.805,6.029,0.048,-0.007,-0.005,103.0,105.0,101.0,13.4,1505.3,324.9,-0.7,1.8,2470.353,13.32,0.048,98.3
2020-06-23T00:31:03,42.805,6.029,0.053,-0.036,-0.013,104.0,105.0,102.0,13.4,1505.3,326.8,-0.7,1.8,2470.361,13.32,0.064,124.2
2020-06-23T00:34:03,42.805,6.029,0.072,-0.012,0.009,104.0,104.0,101.0,13.4,1505.3,326.8,-0.7,1.8,2470.384,13.32,0.072,99.5
2020-06-23T00:37:03,42.805,6.029,0.05,-0.032,0.011,103.0,105.0,102.0,13.4,1505.3,324.4,-0.7,1.8,2470.35,13.32,0.059,122.6
2020-06-23T00:40:03,42.805,6.029,0.069,-0.012,-0.004,104.0,105.0,102.0,13.4,1505.3,325.2,-0.7,1.8,2470.377,13.32,0.07,99.9
2020-06-23T00:43:03,42.805,6.029,0.064,-0.027,0.008,104.0,105.0,102.0,13.4,1505.3,325.1,-0.7,1.8,2470.377,13.32,0.069,112.9
2020-06-23T00:46:03,42.805,6.029,0.053,-0.043,-0.009,103.0,104.0,101.0,13.4,1505.3,327.9,-0.7,1.9,2470.38,13.32,0.068,129.1
2020-06-23T00:49:03,42.805,6.029,0.077,-0.012,0.003,104.0,105.0,101.0,13.3,1505.3,324.3,-0.7,1.8,2470.363,13.32,0.077,98.9
2020-06-23T00:52:03,42.805,6.029,0.05,-0.019,-0.024,104.0,105.0,101.0,13.4,1505.3,326.0,-0.7,1.8,2470.338,13.32,0.053,110.8
2020-06-23T00:55:03,42.805,6.029,0.068,-0.031,-0.018,104.0,105.0,101.0,13.4,1505.3,327.1,-0.7,1.8,2470.346,13.32,0.074,114.5
2020-06-23T00:58:03,42.805,6.029,0.064,-0.041,-0.012,103.0,105.0,101.0,13.4,1505.3,327.2,-0.7,1.8,2470.321,13.32,0.076,122.6
2020-06-23T01:04:03,42.805,6.029,0.046,-0.041,-0.019,108.0,107.0,102.0,13.3,1505.2,326.3,-0.7,1.8,2470.419,13.3,0.061,131.7
2020-06-23T01:07:02,42.805,6.029,0.068,-0.024,-0.022,104.0,106.0,102.0,13.4,1505.3,323.2,-0.7,1.8,2470.367,13.31,0.072,109.4
2020-06-23T01:10:03,42.805,6.029,0.08,-0.018,-0.003,104.0,105.0,101.0,13.4,1505.3,325.4,-0.7,1.8,2470.365,13.31,0.081,102.7
2020-06-23T01:13:03,42.805,6.029,0.06,-0.02,-0.029,104.0,105.0,102.0,13.3,1505.3,326.6,-0.7,1.8,2470.365,13.31,0.063,108.4
2020-06-23T01:16:03,42.805,6.029,0.051,-0.017,-0.012,104.0,105.0,101.0,13.4,1505.3,325.8,-0.7,1.8,2470.336,13.32,0.053,108.4
2020-06-23T01:19:03,42.805,6.029,0.056,-0.034,-0.007,103.0,106.0,102.0,13.4,1505.3,325.7,-0.7,1.8,2470.337,13.32,0.065,121.3
2020-06-23T01:22:03,42.805,6.029,0.068,-0.02,0.017,105.0,105.0,100.0,13.4,1505.3,326.2,-0.7,1.8,2470.323,13.32,0.07,106.4
2020-06-23T01:25:03,42.805,6.029,0.061,-0.042,-0.011,104.0,105.0,100.0,13.4,1505.3,327.2,-0.7,1.8,2470.366,13.32,0.074,124.6
2020-06-23T01:28:03,42.805,6.029,0.07,-0.035,0.01,104.0,105.0,101.0,13.4,1505.3,326.5,-0.7,1.8,2470.325,13.32,0.078,116.6
2020-06-23T01:31:03,42.805,6.029,0.055,-0.026,0.011,103.0,107.0,101.0,13.4,1505.3,326.8,-0.7,1.8,2470.356,13.32,0.06,115.3
2020-06-23T01:34:03,42.805,6.029,0.072,-0.024,-0.008,103.0,105.0,101.0,13.4,1505.3,324.2,-0.7,1.8,2470.341,13.32,0.075,108.4
2020-06-23T01:37:03,42.805,6.029,0.092,-0.041,-0.006,105.0,105.0,100.0,13.4,1505.3,324.0,-0.7,1.8,2470.351,13.32,0.1,114.0
2020-06-23T01:40:03,42.805,6.029,0.1,-0.033,0.01,104.0,103.0,101.0,13.4,1505.3,326.2,-0.7,1.8,2470.354,13.32,0.105,108.3
2020-06-23T01:43:03,42.805,6.029,0.043,-0.038,-0.018,104.0,105.0,101.0,13.4,1505.3,326.9,-0.7,1.8,2470.305,13.32,0.057,131.5
2020-06-23T01:46:03,42.805,6.029,0.071,-0.042,0.007,104.0,104.0,100.0,13.4,1505.3,324.5,-0.7,1.8,2470.331,13.32,0.082,120.6
2020-06-23T01:49:03,42.805,6.029,0.072,-0.032,0.003,103.0,106.0,101.0,13.4,1505.3,324.0,-0.7,1.8,2470.349,13.32,0.078,114.0
2020-06-23T01:52:03,42.805,6.029,0.074,-0.023,-0.009,105.0,104.0,101.0,13.4,1505.3,324.7,-0.7,1.8,2470.323,13.32,0.077,107.3
2020-06-23T01:55:03,42.805,6.029,0.074,-0.015,0.023,104.0,105.0,101.0,13.4,1505.3,322.8,-0.7,1.8,2470.33,13.32,0.075,101.5
2020-06-23T01:58:03,42.805,6.029,0.072,-0.033,-0.02,105.0,106.0,102.0,13.4,1505.3,327.4,-0.7,1.8,2470.322,13.32,0.079,114.6
2020-06-23T02:04:02,42.805,6.029,0.061,-0.022,0.025,106.0,106.0,101.0,13.3,1505.2,324.7,-0.7,1.8,2470.342,13.3,0.064,109.8
2020-06-23T02:07:03,42.805,6.029,0.076,-0.042,0.012,104.0,105.0,101.0,13.4,1505.3,326.0,-0.7,1.7,2470.318,13.31,0.086,118.9
2020-06-23T02:10:03,42.805,6.029,0.066,-0.043,-0.021,104.0,105.0,101.0,13.4,1505.3,324.9,-0.7,1.8,2470.331,13.31,0.078,123.1
2020-06-23T02:13:03,42.805,6.029,0.075,-0.023,-0.001,106.0,107.0,102.0,13.4,1505.3,323.5,-0.7,1.8,2470.323,13.31,0.078,107.0
2020-06-23T02:16:03,42.805,6.029,0.044,-0.026,-0.008,105.0,105.0,101.0,13.4,1505.3,328.2,-0.7,1.8,2470.342,13.32,0.051,120.6
2020-06-23T02:19:03,42.805,6.029,0.071,-0.025,0.008,104.0,105.0,102.0,13.4,1505.3,327.0,-0.7,1.8,2470.27,13.32,0.075,109.4
2020-06-23T02:22:03,42.805,6.029,0.064,-0.028,0.014,104.0,104.0,102.0,13.4,1505.3,324.0,-0.7,1.8,2470.311,13.32,0.069,113.6
2020-06-23T02:25:03,42.805,6.029,0.047,-0.024,-0.001,105.0,106.0,102.0,13.4,1505.3,323.2,-0.7,1.8,2470.319,13.32,0.052,117.0
2020-06-23T02:28:03,42.805,6.029,0.06,-0.023,0.001,103.0,105.0,101.0,13.4,1505.3,325.2,-0.7,1.9,2470.317,13.32,0.064,111.0
2020-06-23T02:31:03,42.805,6.029,0.051,-0.04,0.003,104.0,105.0,103.0,13.4,1505.3,326.7,-0.7,1.8,2470.289,13.32,0.064,128.1
2020-06-23T02:34:03,42.805,6.029,0.07,-0.028,0.016,105.0,104.0,101.0,13.4,1505.3,324.0,-0.7,1.8,2470.355,13.32,0.075,111.8
2020-06-23T02:37:03,42.805,6.029,0.055,-0.025,-0.002,104.0,103.0,103.0,13.4,1505.3,324.4,-0.7,1.9,2470.299,13.32,0.06,114.4
2020-06-23T02:40:03,42.805,6.029,0.07,-0.022,0.0,104.0,105.0,101.0,13.4,1505.3,323.6,-0.7,1.9,2470.338,13.32,0.073,107.4
2020-06-23T02:43:03,42.805,6.029,0.076,-0.024,-0.022,104.0,106.0,100.0,13.4,1505.3,327.1,-0.7,1.8,2470.303,13.32,0.079,107.5
2020-06-23T02:46:03,42.805,6.029,0.099,-0.054,-0.001,104.0,103.0,101.0,13.4,1505.3,325.9,-0.7,1.8,2470.287,13.32,0.112,118.6
2020-06-23T02:49:03,42.805,6.029,0.069,-0.036,-0.018,104.0,104.0,102.0,13.4,1505.3,328.1,-0.7,1.8,2470.308,13.32,0.077,117.6
2020-06-23T02:52:03,42.805,6.029,0.053,-0.045,0.002,105.0,105.0,101.0,13.3,1505.3,327.2,-0.7,1.8,2470.329,13.32,0.069,130.3
2020-06-23T02:55:03,42.805,6.029,0.046,-0.049,-0.006,104.0,105.0,101.0,13.3,1505.3,327.8,-0.7,1.8,2470.331,13.32,0.067,136.8
2020-06-23T02:58:03,42.805,6.029,0.063,-0.02,0.004,104.0,104.0,101.0,13.4,1505.3,325.2,-0.7,1.8,2470.276,13.32,0.066,107.6
2020-06-23T03:04:03,42.805,6.029,0.061,-0.027,-0.006,104.0,106.0,101.0,13.4,1505.2,323.4,-0.8,1.8,2470.314,13.3,0.066,113.9
2020-06-23T03:07:03,42.805,6.029,0.087,-0.04,0.002,103.0,105.0,101.0,13.4,1505.3,326.1,-0.7,1.8,2470.3,13.31,0.095,114.7
2020-06-23T03:10:03,42.805,6.029,0.091,-0.019,0.028,103.0,104.0,102.0,13.4,1505.3,325.8,-0.7,1.8,2470.288,13.31,0.092,101.8
2020-06-23T03:13:03,42.805,6.029,0.079,-0.033,0.009,104.0,105.0,101.0,13.4,1505.3,328.2,-0.7,1.8,2470.299,13.31,0.085,112.7
2020-06-23T03:16:03,42.805,6.029,0.071,-0.046,0.01,105.0,105.0,101.0,13.4,1505.3,328.8,-0.7,1.8,2470.309,13.32,0.084,122.9
2020-06-23T03:19:03,42.805,6.029,0.062,-0.038,0.008,103.0,104.0,101.0,13.4,1505.3,324.7,-0.7,1.8,2470.313,13.32,0.072,121.5
2020-06-23T03:22:03,42.805,6.029,0.053,-0.013,0.002,104.0,105.0,100.0,13.4,1505.3,325.2,-0.7,1.9,2470.353,13.32,0.054,103.8
2020-06-23T03:25:03,42.805,6.029,0.069,-0.026,0.015,105.0,104.0,100.0,13.4,1505.3,325.5,-0.7,1.8,2470.295,13.32,0.073,110.6
2020-06-23T03:28:03,42.805,6.029,0.067,-0.02,0.014,103.0,107.0,100.0,13.4,1505.3,328.7,-0.7,1.8,2470.318,13.32,0.069,106.6
2020-06-23T03:31:03,42.805,6.029,0.046,-0.044,0.013,104.0,103.0,100.0,13.4,1505.3,326.4,-0.7,1.8,2470.278,13.32,0.063,133.7
2020-06-23T03:34:03,42.805,6.029,0.045,-0.049,-0.002,103.0,106.0,103.0,13.4,1505.3,326.6,-0.7,1.9,2470.295,13.32,0.066,137.4
2020-06-23T03:37:03,42.805,6.029,0.052,-0.045,-0.011,105.0,104.0,102.0,13.4,1505.3,323.6,-0.7,1.8,2470.278,13.32,0.068,130.9
2020-06-23T03:40:03,42.805,6.029,0.053,-0.032,0.004,104.0,105.0,100.0,13.4,1505.3,326.5,-0.7,1.8,2470.275,13.32,0.061,121.1
2020-06-23T03:43:03,42.805,6.029,0.075,-0.029,0.01,103.0,105.0,102.0,13.3,1505.3,326.9,-0.7,1.8,2470.319,13.32,0.08,111.1
2020-06-23T03:46:03,42.805,6.029,0.051,-0.042,0.014,103.0,105.0,102.0,13.4,1505.3,328.3,-0.7,1.8,2470.322,13.32,0.066,129.5
2020-06-23T03:49:03,42.805,6.029,0.094,-0.044,-0.016,104.0,104.0,101.0,13.4,1505.3,327.2,-0.7,1.8,2470.287,13.32,0.103,115.1
2020-06-23T03:52:03,42.805,6.029,0.049,-0.029,0.005,105.0,105.0,101.0,13.4,1505.3,326.5,-0.7,1.9,2470.299,13.32,0.056,120.6
2020-06-23T03:55:03,42.805,6.029,0.064,-0.051,0.006,104.0,105.0,101.0,13.4,1505.3,327.0,-0.7,1.8,2470.272,13.32,0.081,128.6
2020-06-23T03:58:03,42.805,6.029,0.059,-0.046,0.001,103.0,106.0,101.0,13.4,1505.3,328.3,-0.7,1.8,2470.328,13.32,0.074,127.9
2020-06-23T04:04:03,42.805,6.029,0.043,-0.051,0.021,104.0,104.0,102.0,13.4,1505.2,324.9,-0.8,1.8,2470.336,13.3,0.066,139.9
2020-06-23T04:07:03,42.805,6.029,0.085,-0.054,0.031,104.0,104.0,101.0,13.4,1505.3,327.8,-0.7,1.8,2470.314,13.31,0.1,122.4
2020-06-23T04:10:03,42.805,6.029,0.079,-0.05,0.026,104.0,102.0,101.0,13.4,1505.3,326.7,-0.7,1.8,2470.292,13.31,0.093,122.3
2020-06-23T04:13:03,42.805,6.029,0.067,-0.055,0.007,105.0,103.0,102.0,13.4,1505.3,326.5,-0.7,1.8,2470.307,13.31,0.086,129.4
2020-06-23T04:16:03,42.805,6.029,0.049,-0.031,-0.004,104.0,105.0,102.0,13.4,1505.3,328.4,-0.7,1.8,2470.296,13.32,0.057,122.3
2020-06-23T04:19:03,42.805,6.029,0.064,-0.053,0.013,105.0,104.0,101.0,13.3,1505.3,325.6,-0.7,1.8,2470.302,13.32,0.083,129.6
2020-06-23T04:22:03,42.805,6.029,0.056,-0.027,0.017,104.0,104.0,102.0,13.3,1505.3,326.2,-0.7,1.8,2470.331,13.32,0.062,115.7
2020-06-23T04:25:03,42.805,6.029,0.044,-0.039,-0.001,103.0,104.0,102.0,13.4,1505.3,326.1,-0.7,1.8,2470.288,13.32,0.058,131.6
2020-06-23T04:28:03,42.805,6.029,0.069,-0.072,0.009,104.0,104.0,101.0,13.4,1505.3,328.5,-0.7,1.8,2470.245,13.32,0.099,136.2
2020-06-23T04:31:03,42.805,6.029,0.053,-0.041,0.005,105.0,106.0,101.0,13.4,1505.3,324.5,-0.7,1.9,2470.313,13.32,0.067,127.7
2020-06-23T04:34:03,42.805,6.029,0.082,-0.037,0.017,105.0,106.0,101.0,13.4,1505.3,324.7,-0.7,1.8,2470.347,13.32,0.089,114.3
2020-06-23T04:37:03,42.805,6.029,0.052,-0.047,0.048,104.0,104.0,102.0,13.4,1505.3,324.4,-0.7,1.8,2470.316,13.32,0.07,132.1
2020-06-23T04:40:03,42.805,6.029,0.065,-0.056,0.014,105.0,104.0,101.0,13.4,1505.3,326.9,-0.7,1.8,2470.257,13.32,0.085,130.7
2020-06-23T04:43:03,42.805,6.029,0.077,-0.039,0.023,105.0,104.0,101.0,13.4,1505.3,324.1,-0.7,1.8,2470.329,13.32,0.086,116.9
2020-06-23T04:46:03,42.805,6.029,0.085,-0.062,0.023,105.0,105.0,100.0,13.3,1505.3,328.2,-0.7,1.8,2470.286,13.32,0.105,126.1
2020-06-23T04:49:03,42.805,6.029,0.087,-0.043,0.017,104.0,105.0,101.0,13.4,1505.3,327.7,-0.7,1.8,2470.317,13.32,0.097,116.3
2020-06-23T04:52:03,42.805,6.029,0.068,-0.052,0.027,104.0,104.0,102.0,13.4,1505.3,328.2,-0.7,1.8,2470.344,13.32,0.085,127.4
2020-06-23T04:55:03,42.805,6.029,0.052,-0.057,0.001,105.0,103.0,102.0,13.4,1505.3,323.4,-0.7,1.9,2470.3,13.32,0.077,137.6
2020-06-23T04:58:03,42.805,6.029,0.067,-0.091,-0.002,104.0,105.0,103.0,13.3,1505.3,328.5,-0.7,1.8,2470.294,13.32,0.113,143.6
2020-06-23T05:04:03,42.805,6.029,0.073,-0.049,0.006,105.0,105.0,101.0,13.4,1505.2,324.3,-0.7,1.8,2470.37,13.3,0.087,123.9
2020-06-23T05:07:03,42.805,6.029,0.071,-0.049,0.026,104.0,104.0,103.0,13.4,1505.3,327.9,-0.7,1.8,2470.352,13.31,0.086,124.6
2020-06-23T05:10:03,42.805,6.029,0.072,-0.059,0.0,105.0,103.0,101.0,13.3,1505.3,327.1,-0.7,1.8,2470.33,13.31,0.093,129.3
2020-06-23T05:13:03,42.805,6.029,0.066,-0.059,-0.014,104.0,105.0,101.0,13.4,1505.3,323.2,-0.7,1.8,2470.369,13.31,0.088,131.8
2020-06-23T05:16:03,42.805,6.029,0.065,-0.044,-0.004,104.0,105.0,102.0,13.4,1505.3,324.6,-0.7,1.8,2470.336,13.32,0.078,124.1
2020-06-23T05:19:03,42.805,6.029,0.046,-0.059,-0.011,103.0,105.0,102.0,13.4,1505.3,323.7,-0.7,1.8,2470.347,13.32,0.074,142.1
2020-06-23T05:22:03,42.805,6.029,0.061,-0.069,0.003,104.0,104.0,101.0,13.4,1505.3,328.3,-0.7,1.8,2470.311,13.32,0.092,138.5
2020-06-23T05:25:03,42.805,6.029,0.05,-0.055,0.019,105.0,104.0,102.0,13.4,1505.3,325.1,-0.7,1.8,2470.343,13.32,0.074,137.7
2020-06-23T05:28:03,42.805,6.029,0.067,-0.048,0.008,105.0,104.0,102.0,13.4,1505.3,325.2,-0.7,1.9,2470.361,13.32,0.082,125.6
2020-06-23T05:31:03,42.805,6.029,0.077,-0.053,-0.013,104.0,106.0,102.0,13.4,1505.3,323.2,-0.7,1.9,2470.313,13.32,0.093,124.5
2020-06-23T05:34:03,42.805,6.029,0.064,-0.026,0.007,104.0,105.0,101.0,13.4,1505.3,326.4,-0.7,1.8,2470.325,13.32,0.069,112.1
2020-06-23T05:37:03,42.805,6.029,0.059,-0.057,-0.023,104.0,105.0,101.0,13.4,1505.3,324.8,-0.7,1.8,2470.365,13.32,0.082,134.0
2020-06-23T05:40:03,42.805,6.029,0.056,-0.036,0.008,103.0,105.0,102.0,13.4,1505.3,323.6,-0.7,1.8,2470.332,13.32,0.066,122.7
2020-06-23T05:43:03,42.805,6.029,0.067,-0.045,0.043,104.0,105.0,102.0,13.4,1505.3,323.9,-0.7,1.8,2470.364,13.32,0.08,123.9
2020-06-23T05:46:03,42.805,6.029,0.069,-0.05,0.02,104.0,105.0,101.0,13.4,1505.3,326.2,-0.7,1.8,2470.327,13.32,0.085,125.9
2020-06-23T05:49:03,42.805,6.029,0.059,-0.05,0.011,105.0,104.0,102.0,13.4,1505.3,323.7,-0.7,1.8,2470.322,13.32,0.077,130.3
2020-06-23T05:52:03,42.805,6.029,0.06,-0.055,-0.005,103.0,105.0,101.0,13.4,1505.3,326.1,-0.7,1.8,2470.399,13.32,0.081,132.5
2020-06-23T05:55:03,42.805,6.029,0.048,-0.035,0.014,104.0,105.0,102.0,13.4,1505.3,323.5,-0.7,1.8,2470.367,13.32,0.059,126.1
2020-06-23T05:58:03,42.805,6.029,0.077,-0.029,-0.004,104.0,105.0,102.0,13.4,1505.3,324.5,-0.7,1.8,2470.341,13.32,0.082,110.6
2020-06-23T06:04:03,42.805,6.029,0.07,-0.029,-0.01,106.0,104.0,101.0,13.4,1505.2,323.6,-0.8,1.8,2470.411,13.3,0.075,112.5
2020-06-23T06:07:03,42.805,6.029,0.036,-0.048,-0.008,103.0,105.0,102.0,13.4,1505.3,326.4,-0.7,1.8,2470.395,13.31,0.06,143.1
2020-06-23T06:10:03,42.805,6.029,0.052,-0.017,0.012,105.0,105.0,102.0,13.4,1505.3,325.1,-0.7,1.8,2470.353,13.31,0.054,108.1
2020-06-23T06:13:03,42.805,6.029,0.071,-0.037,-0.017,104.0,106.0,101.0,13.4,1505.3,326.0,-0.7,1.8,2470.361,13.31,0.08,117.5
2020-06-23T06:16:03,42.805,6.029,0.06,-0.052,0.01,104.0,104.0,101.0,13.4,1505.3,326.1,-0.7,1.8,2470.333,13.32,0.079,130.9
2020-06-23T06:19:03,42.805,6.029,0.068,-0.06,-0.021,104.0,105.0,101.0,13.4,1505.3,324.5,-0.7,1.8,2470.435,13.32,0.09,131.4
2020-06-23T06:22:03,42.805,6.029,0.074,-0.044,0.015,104.0,104.0,102.0,13.4,1505.3,324.6,-0.7,1.8,2470.37,13.32,0.086,120.7
2020-06-23T06:25:03,42.805,6.029,0.056,-0.055,-0.026,104.0,104.0,102.0,13.4,1505.3,326.9,-0.7,1.8,2470.389,13.32,0.078,134.5
2020-06-23T06:28:03,42.805,6.029,0.066,-0.032,0.019,103.0,103.0,102.0,13.4,1505.3,323.5,-0.7,1.8,2470.362,13.32,0.073,115.9
2020-06-23T06:31:03,42.805,6.029,0.07,-0.034,0.01,106.0,103.0,101.0,13.4,1505.3,322.6,-0.7,1.8,2470.408,13.32,0.077,115.9
2020-06-23T06:34:03,42.805,6.029,0.054,-0.062,-0.013,105.0,105.0,102.0,13.4,1505.3,327.6,-0.7,1.8,2470.356,13.32,0.082,138.9
2020-06-23T06:37:03,42.805,6.029,0.044,-0.036,0.026,104.0,104.0,102.0,13.4,1505.3,323.1,-0.7,1.9,2470.404,13.32,0.056,129.3
2020-06-23T06:40:03,42.805,6.029,0.054,-0.058,-0.01,104.0,104.0,100.0,13.4,1505.3,328.1,-0.7,1.8,2470.349,13.32,0.079,137.0
2020-06-23T06:43:03,42.805,6.029,0.072,-0.057,0.015,104.0,104.0,102.0,13.4,1505.3,324.6,-0.7,1.8,2470.369,13.32,0.091,128.4
2020-06-23T06:46:03,42.805,6.029,0.057,-0.021,-0.011,104.0,104.0,101.0,13.4,1505.3,324.7,-0.7,1.8,2470.416,13.32,0.06,110.2
2020-06-23T06:49:03,42.805,6.029,0.038,-0.04,0.004,105.0,104.0,101.0,13.4,1505.3,324.7,-0.7,1.8,2470.349,13.32,0.055,136.5
2020-06-23T06:52:03,42.805,6.029,0.062,-0.041,0.013,104.0,104.0,103.0,13.4,1505.3,323.9,-0.7,1.8,2470.384,13.32,0.074,123.5
2020-06-23T06:55:03,42.805,6.029,0.06,-0.048,0.0,105.0,105.0,102.0,13.4,1505.3,328.2,-0.7,1.8,2470.389,13.32,0.076,128.7
2020-06-23T06:58:03,42.805,6.029,0.063,-0.049,-0.014,105.0,103.0,101.0,13.4,1505.3,326.7,-0.7,1.8,2470.361,13.32,0.079,127.9
2020-06-23T07:04:03,42.805,6.029,0.077,-0.049,-0.028,104.0,106.0,102.0,13.3,1505.2,326.5,-0.8,1.8,2470.443,13.3,0.091,122.5
2020-06-23T07:07:03,42.805,6.029,0.065,-0.042,-0.021,105.0,104.0,101.0,13.3,1505.3,325.9,-0.7,1.8,2470.42,13.31,0.077,122.9
2020-06-23T07:10:03,42.805,6.029,0.07,-0.058,-0.007,105.0,105.0,102.0,13.3,1505.3,324.6,-0.8,1.8,2470.403,13.31,0.09,129.6
2020-06-23T07:13:03,42.805,6.029,0.051,-0.068,-0.006,104.0,105.0,101.0,13.4,1505.3,325.2,-0.7,1.8,2470.419,13.32,0.084,143.1
2020-06-23T07:16:03,42.805,6.029,0.041,-0.038,-0.011,104.0,106.0,102.0,13.4,1505.3,324.3,-0.7,1.8,2470.407,13.32,0.055,132.8
2020-06-23T07:19:03,42.805,6.029,0.082,-0.039,0.005,105.0,104.0,102.0,13.4,1505.3,324.2,-0.7,1.8,2470.431,13.32,0.09,115.4
2020-06-23T07:22:03,42.805,6.029,0.069,-0.038,0.005,106.0,105.0,101.0,13.4,1505.3,327.2,-0.7,1.8,2470.389,13.32,0.078,118.8
2020-06-23T07:25:03,42.805,6.029,0.045,-0.062,-0.032,105.0,106.0,102.0,13.3,1505.3,325.8,-0.7,1.8,2470.451,13.32,0.076,144.0
2020-06-23T07:28:03,42.805,6.029,0.059,-0.035,-0.022,104.0,105.0,102.0,13.4,1505.3,326.6,-0.7,1.8,2470.404,13.32,0.068,120.7
2020-06-23T07:31:03,42.805,6.029,0.066,-0.039,0.013,104.0,104.0,101.0,13.4,1505.3,323.1,-0.7,1.8,2470.422,13.32,0.076,120.6
2020-06-23T07:34:03,42.805,6.029,0.04,-0.04,0.0,105.0,103.0,102.0,13.4,1505.3,327.0,-0.7,1.8,2470.387,13.32,0.056,135.0
2020-06-23T07:37:03,42.805,6.029,0.065,-0.063,-0.021,104.0,105.0,102.0,13.4,1505.3,326.8,-0.7,1.8,2470.415,13.32,0.09,134.1
2020-06-23T07:40:03,42.805,6.029,0.065,-0.061,-0.026,105.0,103.0,101.0,13.4,1505.3,326.5,-0.7,1.8,2470.428,13.32,0.089,133.2
2020-06-23T07:43:03,42.805,6.029,0.065,-0.036,-0.009,105.0,105.0,102.0,13.3,1505.3,325.3,-0.7,1.8,2470.393,13.32,0.074,119.0
2020-06-23T07:46:03,42.805,6.029,0.057,-0.04,0.019,104.0,105.0,102.0,13.4,1505.3,325.7,-0.7,1.8,2470.417,13.32,0.069,125.1
2020-06-23T07:49:03,42.805,6.029,0.029,-0.042,-0.016,105.0,105.0,102.0,13.4,1505.3,324.9,-0.7,1.8,2470.408,13.32,0.051,145.4
2020-06-23T07:52:03,42.805,6.029,0.046,-0.039,-0.021,104.0,105.0,101.0,13.4,1505.3,326.9,-0.7,1.8,2470.457,13.32,0.06,130.3
2020-06-23T07:55:03,42.805,6.029,0.068,-0.043,-0.012,105.0,104.0,102.0,13.4,1505.3,324.4,-0.7,1.8,2470.449,13.32,0.08,122.3
2020-06-23T07:58:03,42.805,6.029,0.061,-0.044,-0.013,104.0,104.0,102.0,13.4,1505.3,327.3,-0.7,1.9,2470.387,13.32,0.075,125.8
2020-06-23T08:04:03,42.805,6.029,0.047,-0.043,-0.023,104.0,104.0,101.0,13.4,1505.2,325.0,-0.7,1.8,2470.457,13.3,0.063,132.5
2020-06-23T08:07:03,42.805,6.029,0.048,-0.032,0.008,105.0,105.0,102.0,13.4,1505.3,327.4,-0.7,1.8,2470.425,13.31,0.057,123.7
2020-06-23T08:10:03,42.805,6.029,0.055,-0.035,0.029,105.0,104.0,102.0,13.4,1505.3,325.2,-0.7,1.8,2470.448,13.31,0.065,122.5
2020-06-23T08:13:03,42.805,6.029,0.079,-0.031,0.051,104.0,105.0,101.0,13.4,1505.3,326.8,-0.7,1.8,2470.445,13.31,0.084,111.4
2020-06-23T08:16:03,42.805,6.029,0.048,-0.037,-0.005,105.0,106.0,104.0,13.4,1505.3,328.2,-0.7,1.8,2470.416,13.32,0.06,127.6
2020-06-23T08:19:03,42.805,6.029,0.071,-0.048,-0.003,105.0,104.0,102.0,13.4,1505.3,326.3,-0.7,1.8,2470.389,13.32,0.085,124.1
2020-06-23T08:22:03,42.805,6.029,0.055,-0.064,-0.001,103.0,104.0,101.0,13.4,1505.3,324.1,-0.7,1.8,2470.436,13.32,0.084,139.3
2020-06-23T08:25:03,42.805,6.029,0.059,-0.055,-0.015,104.0,104.0,102.0,13.4,1505.3,326.9,-0.7,1.8,2470.41,13.32,0.08,133.0
2020-06-23T08:28:03,42.805,6.029,0.059,-0.031,0.007,105.0,104.0,102.0,13.4,1505.3,324.6,-0.7,1.8,2470.407,13.32,0.066,117.7
2020-06-23T08:31:03,42.805,6.029,0.082,-0.04,0.013,106.0,104.0,101.0,13.4,1505.3,324.7,-0.7,1.8,2470.431,13.32,0.091,116.0
2020-06-23T08:34:03,42.805,6.029,0.028,-0.022,0.031,104.0,105.0,103.0,13.4,1505.3,325.4,-0.7,1.8,2470.402,13.32,0.035,128.2
2020-06-23T08:37:03,42.805,6.029,0.056,-0.062,0.007,103.0,104.0,102.0,13.4,1505.3,327.9,-0.7,1.8,2470.44,13.32,0.083,137.9
2020-06-23T08:40:03,42.805,6.029,0.083,-0.046,0.019,103.0,103.0,101.0,13.4,1505.3,328.0,-0.7,1.8,2470.365,13.32,0.094,119.0
2020-06-23T08:43:03,42.805,6.029,0.058,-0.055,-0.029,104.0,104.0,101.0,13.4,1505.3,326.9,-0.7,1.9,2470.402,13.32,0.079,133.5
2020-06-23T08:46:03,42.805,6.029,0.06,-0.026,0.02,103.0,104.0,102.0,13.4,1505.3,325.7,-0.7,1.8,2470.394,13.32,0.065,113.4
2020-06-23T08:49:03,42.805,6.029,0.043,-0.021,0.0,105.0,106.0,102.0,13.3,1505.3,324.2,-0.7,1.8,2470.418,13.32,0.047,116.0
2020-06-23T08:52:03,42.805,6.029,0.049,-0.044,-0.001,103.0,105.0,102.0,13.4,1505.3,326.7,-0.7,1.9,2470.415,13.32,0.065,131.9
2020-06-23T08:55:03,42.805,6.029,0.076,-0.06,0.007,104.0,104.0,101.0,13.4,1505.3,325.2,-0.7,1.9,2470.4,13.32,0.096,128.3
2020-06-23T08:58:03,42.805,6.029,0.059,-0.047,-0.024,104.0,105.0,102.0,13.4,1505.3,326.6,-0.7,1.8,2470.385,13.32,0.075,128.5
2020-06-23T09:04:03,42.805,6.029,0.045,-0.03,-0.009,105.0,105.0,101.0,13.3,1505.2,323.4,-0.7,1.8,2470.462,13.3,0.054,123.7
2020-06-23T09:07:03,42.805,6.029,0.057,-0.035,-0.007,104.0,104.0,102.0,13.4,1505.3,324.1,-0.8,1.8,2470.413,13.31,0.066,121.6
2020-06-23T09:10:03,42.805,6.029,0.038,-0.019,0.036,105.0,105.0,101.0,13.4,1505.3,324.2,-0.7,1.8,2470.432,13.31,0.042,116.6
2020-06-23T09:13:03,42.805,6.029,0.061,-0.037,-0.005,104.0,104.0,101.0,13.4,1505.3,325.1,-0.7,1.8,2470.401,13.32,0.071,121.2
2020-06-23T09:16:03,42.805,6.029,0.059,-0.05,-0.013,105.0,106.0,101.0,13.4,1505.3,322.9,-0.7,1.8,2470.435,13.32,0.077,130.3
2020-06-23T09:19:03,42.805,6.029,0.041,-0.032,0.011,104.0,107.0,103.0,13.4,1505.3,324.2,-0.7,1.8,2470.389,13.32,0.052,128.0
2020-06-23T09:22:03,42.805,6.029,0.056,-0.025,0.014,104.0,106.0,101.0,13.4,1505.3,326.2,-0.7,1.8,2470.404,13.32,0.061,114.1
2020-06-23T09:25:03,42.805,6.029,0.071,-0.059,-0.019,104.0,105.0,102.0,13.4,1505.3,324.2,-0.7,1.8,2470.431,13.32,0.092,129.7
2020-06-23T09:28:03,42.805,6.029,0.078,-0.033,-0.019,105.0,105.0,102.0,13.4,1505.3,323.4,-0.7,1.8,2470.369,13.32,0.084,112.9
2020-06-23T09:31:03,42.805,6.029,0.075,-0.043,-0.003,103.0,105.0,101.0,13.4,1505.3,325.3,-0.7,1.8,2470.422,13.32,0.086,119.8
2020-06-23T09:37:03,42.805,6.029,0.05,-0.035,-0.011,104.0,106.0,103.0,13.4,1505.2,325.6,-0.7,1.8,2470.447,13.3,0.061,125.0
2020-06-23T09:40:03,42.805,6.029,0.056,-0.032,0.005,103.0,105.0,102.0,13.4,1505.3,324.5,-0.7,1.8,2470.417,13.31,0.064,119.7
2020-06-23T09:43:03,42.805,6.029,0.044,-0.023,-0.005,105.0,104.0,102.0,13.3,1505.3,328.2,-0.7,1.8,2470.413,13.31,0.049,117.6
2020-06-23T09:46:03,42.805,6.029,0.038,-0.056,0.0,104.0,105.0,102.0,13.4,1505.3,325.7,-0.7,1.9,2470.378,13.32,0.067,145.8
2020-06-23T09:49:03,42.805,6.029,0.047,-0.042,0.014,104.0,104.0,102.0,13.3,1505.3,327.0,-0.7,1.8,2470.359,13.32,0.063,131.8
2020-06-23T09:52:03,42.805,6.029,0.054,-0.015,-0.005,104.0,105.0,101.0,13.4,1505.3,323.5,-0.7,1.8,2470.353,13.32,0.056,105.5
2020-06-23T09:55:03,42.805,6.029,0.059,-0.03,-0.035,105.0,105.0,102.0,13.4,1505.3,328.1,-0.7,1.8,2470.384,13.32,0.066,116.9
2020-06-23T09:58:03,42.805,6.029,0.046,-0.022,0.006,104.0,106.0,102.0,13.4,1505.3,324.5,-0.7,1.8,2470.375,13.32,0.05,115.6